Memphis, TN

2:35 PM CDT on October 18, 2017 (GMT -0500)
Memphis International

Weather History for KMEM - March, 2013

Change the Weather History Date:

Friday, March 29, 2013

  Actual Average Record
Temperature  
Mean Temperature 57 °F 58 °F  
Max Temperature 63 °F 68 °F 86 °F (2007)
Min Temperature 50 °F 48 °F 28 °F (1955)
Degree Days  
Heating Degree Days 8 8  
Month to date heating degree days 489 343  
Since 1 July heating degree days 2687 2793  
Cooling Degree Days 0 1  
Month to date cooling degree days 2 14  
Year to date cooling degree days 11 17  
Growing Degree Days 6 (Base 50)    
Moisture  
Dew Point 45 °F    
Average Humidity 65    
Maximum Humidity 93    
Minimum Humidity 36    
Precipitation  
Precipitation 0.22 in 0.18 in 2.67 in (1939)
Month to date precipitation 2.96 4.79  
Year to date precipitation 16.53 13.16  
Snow  
Snow 0.00 in 0.00 in 1.00 in (1991)
Month to date snowfall T 0.4  
Since 1 July snowfall 0.9 3.8  
Snow Depth 0.00 in    
Sea Level Pressure  
Sea Level Pressure 30.21 in    
Wind  
Wind Speed 6 mph (SSW)    
Max Wind Speed 17 mph    
Max Gust Speed 26 mph    
Visibility 9 miles    
Events Rain    
T = Trace of Precipitation, MM = Missing Value Source: NWS Daily Summary

Daily Weather History Graph

Daily Weather History Graph

Search for Another Location

Airport or City:

Trip Planner

Search our weather history database for the weather conditions in past years. The results will help you decide how hot, cold, wet, or windy it might be!

Date:

Astronomy

Mar. 29, 2013 Rise Set
Actual Time 6:50 AM CDT 7:19 PM CDT
Civil Twilight 6:25 AM CDT 7:44 PM CDT
Nautical Twilight 5:55 AM CDT 8:14 PM CDT
Astronomical Twilight 5:24 AM CDT 8:44 PM CDT
Moon 10:11 PM CDT (3/29) 8:06 AM CDT (3/29)
Length of Visible Light 13h 19m
Length of Day
12h 28m
Waning Gibbous, 93% of the Moon is Illuminated
Mar 29
Waning Gibbous
Apr 2
Last Quarter
Apr 10
New
Apr 18
First Quarter
Apr 25
Full

Hourly Weather History & Observations

Time (CDT) Temp. Dew Point Humidity Pressure Visibility Wind Dir Wind Speed Gust Speed Precip Events Conditions
12:54 AM 54.0 °F 35.1 °F 49% 30.24 in 10.0 mi SSE 4.6 mph - N/A   Partly Cloudy
1:54 AM 51.1 °F 35.1 °F 54% 30.24 in 10.0 mi South 3.5 mph - N/A   Scattered Clouds
2:54 AM 52.0 °F 36.0 °F 54% 30.21 in 10.0 mi South 9.2 mph - N/A   Scattered Clouds
3:54 AM 55.0 °F 36.0 °F 49% 30.19 in 10.0 mi South 10.4 mph - N/A   Mostly Cloudy
4:54 AM 55.0 °F 35.1 °F 47% 30.19 in 10.0 mi SSW 9.2 mph - N/A   Mostly Cloudy
5:54 AM 55.9 °F 34.0 °F 44% 30.20 in 10.0 mi SSW 8.1 mph - N/A   Overcast
6:54 AM 55.9 °F 34.0 °F 44% 30.21 in 10.0 mi SSW 8.1 mph - N/A   Overcast
7:54 AM 55.9 °F 34.0 °F 44% 30.22 in 10.0 mi SSW 13.8 mph - N/A   Mostly Cloudy
8:54 AM 61.0 °F 34.0 °F 36% 30.21 in 10.0 mi SSW 10.4 mph 20.7 mph N/A   Mostly Cloudy
9:54 AM 63.0 °F 35.1 °F 35% 30.22 in 10.0 mi SSW 10.4 mph - N/A   Overcast
10:54 AM 54.0 °F 46.9 °F 77% 30.27 in 10.0 mi Variable 6.9 mph - 0.01 in Rain Rain
11:25 AM 51.8 °F 48.2 °F 88% 30.27 in 5.0 mi Calm Calm - 0.08 in Rain Heavy Rain
11:54 AM 52.0 °F 48.9 °F 89% 30.26 in 4.0 mi Variable 3.5 mph - 0.19 in Rain Rain
12:26 PM 53.6 °F 48.2 °F 82% 30.25 in 10.0 mi Variable 4.6 mph - 0.02 in   Overcast
12:54 PM 54.0 °F 50.0 °F 86% 30.24 in 8.0 mi Calm Calm - 0.02 in   Overcast
1:54 PM 54.0 °F 52.0 °F 93% 30.21 in 6.0 mi SSW 3.5 mph - 0.00 in   Overcast
2:20 PM 55.4 °F 51.8 °F 88% 30.20 in 8.0 mi Calm Calm - N/A   Overcast
2:54 PM 55.0 °F 52.0 °F 89% 30.19 in 8.0 mi SW 4.6 mph - N/A   Overcast
3:21 PM 55.4 °F 51.8 °F 88% 30.17 in 10.0 mi SW 8.1 mph 19.6 mph N/A   Overcast
3:54 PM 55.9 °F 51.1 °F 84% 30.17 in 10.0 mi SW 9.2 mph - N/A   Overcast
4:17 PM 55.4 °F 50.0 °F 82% 30.17 in 10.0 mi SW 6.9 mph - N/A   Overcast
4:54 PM 55.9 °F 50.0 °F 80% 30.18 in 10.0 mi WSW 5.8 mph - N/A   Overcast
5:29 PM 55.4 °F 50.0 °F 82% 30.18 in 10.0 mi West 3.5 mph - N/A   Overcast
5:54 PM 55.9 °F 51.1 °F 84% 30.18 in 10.0 mi WSW 5.8 mph - N/A   Overcast
6:54 PM 55.0 °F 51.1 °F 86% 30.18 in 10.0 mi Calm Calm - N/A   Overcast
7:30 PM 55.4 °F 51.8 °F 88% 30.18 in 10.0 mi West 3.5 mph - N/A   Overcast
7:54 PM 55.0 °F 51.1 °F 86% 30.19 in 10.0 mi Calm Calm - N/A   Overcast
8:54 PM 54.0 °F 51.1 °F 90% 30.20 in 7.0 mi Calm Calm - N/A   Overcast
9:44 PM 55.4 °F 51.8 °F 88% 30.21 in 6.0 mi Calm Calm - N/A   Overcast
9:54 PM 55.0 °F 51.1 °F 86% 30.20 in 6.0 mi Calm Calm - N/A   Overcast
10:54 PM 54.0 °F 51.1 °F 90% 30.20 in 6.0 mi ENE 5.8 mph - N/A   Overcast
11:45 PM 53.6 °F 51.8 °F 94% 30.20 in 8.0 mi ENE 6.9 mph - N/A   Overcast
11:54 PM 54.0 °F 51.1 °F 90% 30.20 in 8.0 mi NE 8.1 mph - N/A   Overcast